Temp_Advection
nan nan nan nan nan nan nan nan nan nan nan nan nan nan nan nan nan nan nan nan nan nan nan nan nan nan nan nan nan nan nan nan
nan 0 0 1 0 -0 0 -0 1 1 0 0 -1 -0 1 0 0 0 1 1 1 0 0 1 1 1 1 0 0 0 0 nan
nan 0 0 -0 -0 1 1 -1 -0 -0 1 1 1 0 0 1 0 0 1 1 1 1 1 1 1 1 1 0 0 -0 0 nan
nan 1 0 0 -0 -1 0 1 1 1 2 2 2 0 -0 -1 -1 -0 1 2 1 1 1 0 0 0 0 0 0 0 -0 nan
nan -1 -0 -0 -1 0 1 1 2 2 2 2 0 0 -0 -0 1 1 1 1 2 1 0 -0 -0 0 1 1 0 1 1 nan
nan -0 -0 -0 -0 1 1 1 1 2 3 2 1 0 -0 1 1 1 1 1 1 1 1 1 1 1 1 1 1 0 1 nan
nan 0 0 -0 0 0 0 1 1 1 1 0 0 1 1 0 1 1 0 0 1 1 1 0 1 1 0 1 1 0 1 nan
nan 0 -0 -0 -0 0 0 0 0 1 1 1 1 2 1 -0 0 1 0 0 1 1 1 0 0 1 1 0 1 1 1 nan
nan -0 -0 -0 -0 -0 0 0 0 0 0 1 1 0 0 0 1 0 -0 0 1 2 1 0 0 1 1 0 1 1 1 nan
nan -1 -1 -1 -0 -0 -0 -0 0 0 1 1 0 0 -0 0 1 0 0 1 2 2 1 0 0 0 1 0 1 0 1 nan
nan -1 -1 -0 -1 -1 -0 -0 0 0 1 0 -0 -0 0 1 0 0 1 1 1 2 2 1 0 0 0 1 0 1 2 nan
nan -1 -1 -1 -0 0 -0 -0 -1 -0 -0 0 0 0 1 1 0 1 1 0 0 1 2 3 1 -0 0 1 1 1 1 nan
nan -1 -1 -1 -1 -0 -0 -0 -0 -1 0 -0 0 1 1 0 0 1 1 1 1 1 1 2 1 1 0 0 1 1 1 nan
nan -1 -1 -1 -0 -0 -0 -1 -0 1 1 0 0 1 0 -0 1 1 1 1 1 1 1 1 2 1 1 1 1 1 1 nan
nan -1 -1 -1 -1 -0 -0 -0 -0 -0 0 0 -0 0 0 1 1 1 1 1 1 1 0 1 1 1 1 1 1 1 1 nan
nan -1 -2 -2 -2 -1 -1 -1 0 1 0 -0 -1 1 1 0 -0 -0 0 1 1 1 1 0 0 1 1 1 1 1 2 nan
nan -1 -1 -1 -2 -2 -2 -2 -1 -0 0 1 0 0 1 1 -0 -1 -1 0 0 0 1 1 0 1 2 2 2 2 2 nan
nan -1 -1 -1 -1 -1 -1 -1 -2 -2 -1 -1 -0 -0 1 1 1 -0 -1 -1 0 0 1 1 1 1 2 3 3 3 2 nan
nan nan nan nan nan nan nan nan nan nan nan nan nan nan nan nan nan nan nan nan nan nan nan nan nan nan nan nan nan nan nan nan
Wind_Speed
31 37 42 46 47 43 41 40 40 39 39 36 36 36 34 35 36 36 34 35 35 35 36 35 32 32 32 32 32 31 31 31
26 29 31 41 45 49 49 45 44 44 43 42 41 40 38 36 36 36 35 34 35 35 36 35 35 34 34 33 33 33 33 33
26 28 27 29 31 39 51 50 46 46 45 46 45 43 42 39 36 36 35 35 36 36 37 37 36 35 35 36 35 35 36 36
30 34 31 29 31 31 38 40 46 49 49 49 48 48 46 44 41 37 35 35 36 37 38 39 39 37 37 38 39 40 39 38
20 26 25 28 29 28 31 36 40 47 51 51 52 52 52 48 45 40 37 34 34 36 37 37 39 38 37 39 40 41 41 43
18 11 13 16 25 28 31 35 38 41 47 50 50 52 53 51 47 43 39 34 32 35 36 37 37 39 37 35 39 41 43 48
20 18 12 10 15 20 25 31 36 39 41 43 44 46 50 51 48 44 40 37 35 35 35 35 37 40 39 39 37 36 40 43
19 20 18 15 11 10 15 20 24 27 31 34 36 38 42 43 43 42 40 39 40 40 36 33 33 34 38 42 40 41 45 44
12 12 12 13 12 11 8 10 14 17 21 26 27 28 30 32 34 33 33 35 38 38 37 32 33 32 32 36 42 44 38 39
17 14 13 13 13 15 16 17 17 20 23 22 23 24 26 28 25 26 28 29 34 34 32 31 31 30 31 32 34 34 35 33
22 22 22 21 22 23 24 25 25 25 23 24 24 25 25 26 25 24 24 22 23 24 25 25 27 28 27 31 26 29 30 27
24 24 24 28 27 25 28 34 33 32 29 28 27 28 28 27 29 27 24 20 19 20 25 27 27 28 30 26 24 24 33 28
25 27 27 28 30 35 31 31 35 40 37 35 33 34 33 34 34 31 26 24 22 20 23 27 28 28 29 27 25 25 33 30
25 24 24 28 27 30 30 28 31 35 42 42 39 39 38 38 39 34 30 27 24 22 22 24 27 27 29 27 27 30 29 28
25 22 23 27 28 25 23 27 25 27 31 41 42 42 42 42 41 38 33 30 28 25 23 23 25 24 31 29 29 34 27 32
21 24 25 25 24 23 19 19 20 23 26 30 38 42 44 44 42 41 38 35 32 28 27 26 26 29 28 30 33 31 33 38
15 18 21 24 25 25 24 20 17 18 21 23 25 27 31 32 30 36 39 37 34 31 31 30 31 34 34 34 37 36 39 42
15 18 20 22 24 25 27 27 25 22 18 18 19 22 24 25 24 26 32 34 33 31 32 33 36 37 37 39 39 38 42 41
14 16 18 20 21 23 24 24 25 25 23 22 22 22 22 23 23 23 24 27 29 30 33 35 36 37 37 38 37 43 39 33
Wind_Direction
246 250 252 251 249 244 239 239 238 237 240 239 241 243 244 245 246 246 246 246 246 246 248 249 247 246 246 245 248 250 255 256
261 253 253 253 251 251 245 239 241 240 240 240 239 240 242 243 245 244 244 243 244 245 247 248 248 247 249 251 252 254 254 255
268 269 258 248 247 246 249 245 241 245 244 245 243 244 244 246 249 250 248 244 244 246 248 251 251 252 254 254 254 255 258 256
273 268 263 258 240 242 250 253 245 243 246 244 243 245 246 247 248 251 253 250 248 250 251 252 255 254 255 258 259 257 258 258
289 268 256 241 235 244 246 248 250 246 246 246 245 246 246 250 251 254 256 257 258 257 257 258 261 264 260 261 263 263 261 258
349 328 275 231 239 240 240 242 246 247 246 247 248 247 249 251 253 257 260 263 265 265 265 262 262 260 262 264 267 267 266 258
17 19 5 299 266 252 245 243 244 246 248 250 253 253 251 251 253 257 263 270 270 268 265 265 266 264 263 264 268 268 268 263
19 19 24 18 357 303 274 264 259 260 260 259 259 258 255 257 260 263 265 268 269 272 271 270 269 271 266 261 265 268 271 261
0 3 0 355 350 342 315 285 269 261 259 258 258 258 259 260 260 261 262 266 270 273 275 273 272 272 272 269 263 268 270 247
350 332 320 317 312 306 298 290 282 282 272 262 254 251 250 254 256 254 257 266 271 273 271 265 265 274 275 276 268 265 275 233
357 348 340 328 308 293 278 269 264 269 270 265 256 248 251 253 247 247 257 271 278 279 272 263 267 271 267 271 277 276 249 220
339 335 321 309 305 299 301 273 262 261 263 261 251 251 250 248 242 251 257 265 275 281 282 278 272 271 266 264 273 257 223 220
336 332 326 317 309 297 298 291 275 261 257 257 255 254 252 249 246 252 255 261 265 271 272 270 271 263 266 264 266 252 225 216
337 329 320 316 312 295 296 292 291 279 259 255 255 257 257 254 250 253 254 258 260 263 269 272 272 264 267 264 264 235 224 228
336 335 327 320 318 315 300 294 299 301 284 262 261 264 266 266 259 256 257 260 260 261 267 269 270 270 259 260 246 225 227 215
334 343 342 338 337 336 323 307 293 306 303 289 281 283 282 280 271 262 259 259 262 263 265 268 271 272 265 258 241 241 229 216
350 352 2 6 6 1 356 345 328 315 293 288 290 292 295 299 292 272 263 263 264 268 268 267 275 276 273 257 239 240 224 219
3 6 6 11 14 16 13 10 6 5 357 341 326 317 314 316 310 290 275 271 270 271 277 277 278 278 274 252 241 235 221 218
12 6 4 3 1 360 359 358 360 359 355 351 343 335 327 320 314 303 288 279 276 279 280 278 276 274 268 248 229 215 215 214
Height
1476 1478 1481 1483 1485 1490 1494 1496 1499 1501 1503 1507 1508 1509 1510 1512 1513 1515 1517 1520 1522 1524 1525 1527 1530 1531 1532 1534 1535 1536 1536 1536
1471 1472 1473 1474 1477 1480 1483 1488 1491 1495 1497 1499 1500 1500 1503 1505 1506 1509 1511 1513 1516 1518 1519 1521 1523 1525 1527 1529 1530 1530 1529 1530
1465 1464 1464 1464 1466 1469 1473 1478 1484 1486 1489 1491 1494 1496 1498 1499 1501 1503 1505 1507 1510 1512 1514 1515 1517 1519 1521 1522 1523 1522 1523 1525
1457 1456 1456 1457 1458 1461 1464 1467 1473 1477 1481 1485 1488 1491 1492 1493 1494 1496 1498 1502 1504 1507 1508 1510 1510 1512 1512 1513 1514 1514 1515 1519
1447 1444 1446 1447 1451 1454 1458 1462 1466 1471 1474 1477 1479 1481 1482 1484 1488 1491 1493 1496 1498 1500 1502 1503 1504 1504 1505 1504 1505 1506 1508 1508
1444 1442 1442 1445 1448 1450 1453 1457 1460 1462 1466 1470 1473 1475 1477 1479 1483 1485 1488 1491 1492 1493 1494 1494 1494 1495 1495 1495 1496 1496 1497 1495
1446 1445 1445 1447 1448 1449 1451 1453 1455 1458 1461 1464 1466 1469 1471 1473 1476 1478 1481 1483 1483 1485 1486 1486 1486 1486 1486 1487 1488 1489 1488 1485
1450 1449 1448 1449 1450 1451 1452 1452 1453 1455 1457 1459 1460 1462 1465 1468 1471 1473 1474 1475 1475 1475 1477 1477 1477 1478 1478 1480 1480 1480 1480 1478
1454 1454 1453 1453 1453 1453 1453 1454 1454 1454 1454 1453 1455 1456 1458 1460 1462 1465 1466 1467 1467 1468 1469 1469 1470 1470 1470 1470 1471 1472 1472 1471
1457 1457 1456 1455 1454 1454 1455 1453 1452 1452 1451 1451 1451 1452 1452 1452 1455 1456 1458 1459 1459 1460 1461 1461 1463 1462 1463 1463 1463 1460 1464 1463
1457 1457 1456 1455 1454 1452 1451 1450 1449 1448 1447 1446 1446 1446 1447 1447 1449 1449 1450 1451 1451 1451 1452 1453 1454 1455 1456 1455 1455 1455 1456 1458
1454 1454 1452 1451 1449 1447 1444 1443 1441 1440 1440 1440 1439 1440 1440 1441 1441 1442 1443 1445 1444 1444 1444 1444 1445 1445 1446 1445 1445 1446 1447 1450
1449 1447 1445 1443 1441 1438 1435 1433 1432 1431 1432 1432 1433 1433 1434 1434 1435 1436 1437 1438 1438 1438 1438 1438 1437 1438 1438 1438 1439 1441 1441 1444
1444 1443 1441 1438 1434 1430 1425 1423 1421 1422 1422 1423 1425 1426 1427 1427 1428 1429 1430 1430 1430 1430 1430 1430 1431 1431 1433 1433 1434 1435 1437 1439
1439 1437 1435 1431 1426 1422 1418 1416 1414 1412 1413 1416 1418 1419 1420 1420 1421 1422 1423 1422 1422 1422 1423 1424 1425 1426 1427 1427 1428 1429 1430 1433
1437 1435 1432 1428 1422 1418 1414 1411 1409 1407 1407 1409 1411 1413 1413 1413 1414 1414 1414 1413 1414 1416 1417 1418 1419 1419 1419 1419 1421 1422 1424 1427
1438 1436 1432 1427 1422 1418 1414 1410 1406 1404 1404 1404 1404 1404 1403 1402 1402 1404 1406 1407 1408 1409 1410 1410 1411 1410 1411 1411 1412 1413 1415 1416
1438 1436 1433 1429 1424 1420 1417 1413 1409 1404 1401 1401 1400 1399 1397 1396 1395 1397 1399 1399 1400 1400 1400 1400 1401 1401 1402 1403 1404 1405 1408 1409
1436 1435 1433 1430 1426 1423 1421 1416 1411 1407 1403 1402 1401 1399 1397 1395 1393 1392 1392 1392 1391 1391 1391 1390 1390 1391 1392 1393 1394 1397 1400 1401